Temp
14 14 14 14 14 14 15 14 14 14 14 15 15 14 14 14 14 14 15 15 15 15 16 15 15 15 15 14 14 14 14 13 13 13 12 10 9 8 8 8 8 8 8
14 14 14 14 14 14 14 15 14 14 14 14 14 14 13 13 14 14 15 15 16 16 16 16 15 15 15 15 14 14 14 13 13 13 12 11 9 8 8 7 7 8 8
14 14 14 15 14 14 14 14 15 15 14 14 14 14 14 14 14 15 15 16 16 16 16 16 15 15 15 15 14 14 14 13 13 12 12 11 10 10 8 8 7 7 8
15 15 15 15 14 14 14 14 15 15 15 15 15 14 14 14 15 15 16 16 16 16 16 16 15 15 15 15 14 14 14 13 13 13 12 11 11 10 10 9 7 7 7
15 15 15 14 14 14 14 14 15 15 15 15 15 15 15 15 15 16 16 16 16 16 16 15 16 15 15 14 14 14 14 13 13 13 13 12 11 11 10 8 7 7 7
15 15 15 14 14 15 15 15 15 15 15 15 15 15 15 15 16 16 16 16 16 16 16 16 16 15 15 15 14 14 14 14 14 14 13 12 11 10 10 8 7 6 6
14 15 15 15 15 15 15 15 15 15 15 15 15 15 15 15 16 16 16 16 16 16 16 16 16 16 15 15 15 14 14 14 14 13 12 12 11 11 10 9 7 6 6
14 15 16 16 15 15 15 15 15 15 15 15 15 14 15 16 16 16 16 16 16 16 16 16 16 16 16 15 15 14 14 14 14 13 13 12 11 11 10 9 7 6 6
15 15 16 16 16 15 16 15 15 15 15 15 15 14 15 16 15 16 16 16 16 16 16 16 16 16 15 15 15 14 14 14 14 13 13 12 11 11 10 10 9 7 6
15 16 16 16 16 16 16 16 16 16 15 15 15 15 15 15 16 16 16 16 16 17 16 16 16 16 15 15 15 14 14 14 14 14 13 12 11 11 10 10 9 9 8
15 15 16 17 17 16 16 16 16 16 16 15 16 16 16 15 15 16 16 16 17 17 17 16 16 15 15 15 15 14 14 14 14 13 13 12 11 11 10 10 10 9 9
15 16 16 16 17 17 17 17 16 16 16 16 16 16 15 16 16 16 16 17 17 17 17 16 16 15 16 15 15 14 14 14 13 13 12 12 12 11 11 10 10 10 10
16 17 17 17 17 17 17 17 17 17 17 17 16 16 16 16 15 16 16 16 16 16 16 16 16 16 16 15 14 14 14 14 13 13 13 12 12 11 11 11 10 10 10
16 17 17 17 17 17 17 17 17 17 17 17 16 16 15 16 15 15 16 16 16 16 16 17 16 16 16 15 14 14 14 14 13 13 13 12 12 11 11 11 10 10 9
15 16 16 16 17 17 17 17 17 17 17 17 17 16 15 16 15 15 15 15 15 15 17 18 17 17 16 15 14 14 14 13 13 12 12 12 12 11 11 11 10 9 9
14 15 16 16 16 17 17 17 17 17 17 17 17 16 16 16 15 15 15 15 15 14 14 16 16 16 15 14 14 14 14 13 13 13 12 12 12 11 11 10 10 9 9
14 14 14 15 16 16 16 17 17 17 17 18 17 17 17 16 16 15 15 14 14 14 14 15 15 15 14 14 14 14 13 13 13 12 12 12 11 11 10 10 10 9 9
14 14 13 13 14 15 16 16 17 18 18 18 18 18 18 17 16 16 15 15 15 15 14 15 14 14 14 13 13 13 13 13 12 12 12 11 11 10 10 9 9 9 8
14 14 13 13 13 14 14 15 16 17 18 18 19 18 19 18 17 17 17 17 16 15 14 14 14 13 12 13 13 13 13 12 12 12 11 11 11 10 9 9 9 9 8
13 13 14 13 14 13 14 14 14 15 16 17 17 18 18 18 18 18 17 17 17 16 15 14 14 13 13 12 12 13 13 12 12 11 11 11 10 10 9 9 9 8 8
13 13 13 13 13 13 13 13 14 14 15 15 17 17 18 18 18 18 18 17 17 16 15 14 14 14 14 13 14 14 13 12 12 11 11 11 10 10 9 8 8 8 8
13 13 13 12 12 13 13 13 14 14 14 15 15 16 17 17 18 18 18 17 17 16 16 15 15 15 16 16 14 13 12 12 11 12 11 11 10 10 9 8 8 8 7
13 13 13 13 12 12 12 12 13 13 13 14 15 15 15 16 17 17 17 17 16 16 15 15 15 15 16 16 15 13 13 13 12 11 10 11 10 10 9 8 8 8 7
12 12 13 12 12 12 12 12 12 12 12 13 13 14 15 15 15 16 16 16 16 16 16 16 16 16 16 15 13 13 12 11 10 10 10 9 10 10 9 8 8 7 7
12 12 12 13 12 12 12 12 11 11 12 12 12 13 13 14 14 15 15 15 15 16 16 16 15 15 15 14 13 12 12 11 11 11 10 8 10 9 8 8 8 7 6
11 11 12 12 12 12 12 12 11 11 11 11 11 11 12 12 13 13 13 14 14 15 16 15 15 14 14 13 12 12 12 11 10 9 10 8 9 8 7 7 7 6 5
Height
1555 1556 1557 1558 1559 1560 1560 1561 1562 1562 1563 1563 1563 1563 1564 1564 1564 1564 1564 1564 1564 1564 1564 1564 1564 1564 1565 1564 1565 1565 1564 1563 1563 1562 1561 1560 1559 1558 1557 1556 1555 1554 1553
1554 1555 1556 1557 1558 1559 1560 1561 1561 1562 1562 1562 1563 1563 1563 1563 1563 1563 1564 1564 1564 1564 1564 1564 1564 1565 1565 1565 1564 1564 1564 1563 1562 1561 1560 1558 1557 1556 1555 1554 1553 1553 1552
1552 1553 1555 1556 1557 1558 1559 1560 1561 1561 1561 1561 1562 1562 1562 1562 1562 1562 1563 1563 1564 1564 1565 1565 1565 1565 1565 1564 1564 1563 1562 1561 1560 1559 1558 1556 1555 1554 1552 1551 1551 1550 1549
1551 1552 1553 1555 1556 1557 1559 1559 1560 1560 1560 1560 1560 1560 1560 1560 1561 1561 1562 1563 1564 1564 1565 1565 1564 1565 1564 1563 1563 1562 1561 1560 1558 1557 1556 1554 1553 1551 1550 1548 1547 1546 1545
1548 1550 1551 1553 1555 1556 1557 1558 1558 1559 1559 1559 1559 1559 1559 1559 1559 1560 1561 1562 1562 1563 1564 1564 1564 1563 1563 1563 1562 1561 1560 1558 1557 1556 1554 1552 1551 1549 1547 1545 1544 1543 1542
1545 1547 1549 1551 1553 1554 1555 1556 1557 1557 1557 1557 1557 1557 1557 1557 1558 1559 1560 1560 1561 1561 1562 1562 1562 1562 1562 1561 1560 1560 1559 1557 1556 1555 1553 1550 1549 1547 1545 1543 1541 1540 1539
1542 1544 1547 1548 1550 1552 1553 1554 1554 1554 1555 1555 1556 1556 1556 1555 1556 1557 1558 1558 1559 1559 1560 1560 1560 1560 1559 1559 1559 1558 1557 1556 1555 1553 1551 1549 1546 1544 1542 1540 1538 1538 1537
1538 1540 1543 1545 1547 1548 1549 1551 1552 1552 1553 1553 1554 1554 1554 1556 1554 1554 1555 1556 1557 1557 1557 1558 1558 1557 1557 1557 1557 1556 1555 1555 1553 1550 1548 1546 1544 1542 1540 1538 1536 1535 1533
1535 1537 1539 1541 1543 1545 1546 1548 1549 1549 1550 1551 1551 1552 1552 1551 1551 1551 1552 1553 1554 1554 1554 1555 1555 1555 1555 1555 1555 1554 1554 1553 1550 1548 1547 1544 1542 1539 1537 1535 1533 1531 1530
1531 1532 1535 1538 1540 1541 1542 1544 1546 1546 1547 1548 1548 1548 1549 1549 1548 1549 1549 1549 1550 1550 1551 1551 1552 1553 1553 1553 1553 1552 1551 1550 1548 1546 1544 1542 1540 1537 1534 1532 1530 1529 1527
1527 1528 1530 1533 1535 1537 1539 1540 1541 1543 1543 1545 1545 1545 1546 1546 1545 1545 1545 1546 1546 1547 1547 1548 1549 1549 1550 1550 1550 1550 1548 1547 1545 1544 1542 1540 1538 1535 1532 1530 1528 1526 1524
1522 1524 1525 1527 1530 1532 1534 1536 1537 1538 1540 1540 1541 1541 1542 1543 1543 1543 1543 1543 1544 1544 1545 1545 1545 1546 1547 1547 1547 1546 1545 1544 1542 1541 1539 1537 1535 1532 1529 1527 1525 1524 1522
1515 1518 1520 1521 1523 1526 1528 1531 1532 1533 1534 1535 1537 1537 1538 1539 1540 1541 1541 1541 1541 1541 1541 1541 1541 1542 1542 1543 1543 1543 1542 1541 1539 1537 1536 1534 1532 1529 1527 1524 1523 1521 1518
1511 1514 1516 1516 1518 1521 1523 1525 1525 1527 1529 1530 1531 1532 1533 1535 1536 1537 1538 1539 1538 1537 1537 1536 1536 1537 1538 1539 1540 1539 1538 1536 1535 1534 1533 1531 1528 1526 1523 1522 1520 1518 1515
1506 1508 1510 1511 1512 1514 1516 1518 1519 1520 1522 1524 1525 1526 1527 1529 1531 1532 1533 1534 1535 1534 1532 1532 1532 1533 1534 1534 1534 1534 1533 1532 1531 1530 1529 1527 1525 1522 1520 1517 1516 1514 1511
1499 1500 1502 1504 1505 1507 1508 1510 1511 1513 1515 1516 1518 1520 1520 1522 1524 1525 1527 1528 1528 1529 1528 1527 1528 1528 1529 1530 1530 1529 1529 1528 1527 1525 1525 1522 1521 1519 1516 1514 1512 1510 1507
1492 1492 1494 1496 1498 1499 1501 1502 1503 1505 1507 1508 1510 1512 1513 1515 1516 1518 1520 1521 1521 1522 1521 1522 1522 1523 1523 1524 1524 1524 1523 1523 1522 1520 1519 1518 1516 1514 1511 1509 1508 1505 1503
1484 1485 1486 1487 1488 1491 1493 1494 1495 1496 1498 1499 1501 1503 1504 1507 1508 1510 1511 1512 1513 1514 1514 1513 1517 1517 1517 1518 1518 1517 1517 1516 1516 1515 1513 1512 1510 1508 1506 1504 1503 1500 1498
1476 1476 1477 1478 1479 1480 1483 1486 1487 1489 1490 1491 1492 1493 1495 1497 1499 1500 1501 1502 1503 1505 1506 1506 1508 1511 1511 1511 1511 1511 1510 1510 1510 1509 1507 1506 1504 1502 1501 1499 1497 1495 1493
1468 1468 1468 1469 1470 1472 1473 1476 1478 1479 1480 1481 1483 1483 1485 1486 1488 1489 1491 1492 1494 1495 1497 1498 1499 1501 1502 1503 1504 1503 1503 1503 1503 1503 1501 1500 1499 1497 1495 1493 1491 1489 1488
1461 1461 1460 1460 1461 1461 1463 1465 1467 1468 1469 1470 1471 1473 1474 1475 1478 1480 1480 1482 1483 1484 1486 1488 1489 1491 1491 1491 1492 1495 1496 1495 1495 1495 1495 1494 1492 1491 1489 1487 1485 1483 1481
1454 1454 1453 1452 1451 1451 1453 1455 1457 1457 1458 1458 1458 1460 1462 1465 1466 1469 1470 1472 1473 1474 1474 1476 1477 1477 1480 1481 1485 1487 1488 1487 1487 1487 1487 1487 1486 1485 1483 1481 1479 1477 1475
1447 1445 1445 1444 1442 1442 1444 1445 1447 1447 1446 1445 1446 1448 1449 1451 1454 1457 1459 1461 1460 1462 1464 1467 1467 1467 1470 1473 1477 1478 1477 1478 1479 1479 1479 1479 1479 1478 1477 1475 1473 1472 1469
1441 1438 1436 1435 1434 1433 1434 1434 1436 1436 1434 1432 1433 1435 1436 1438 1440 1444 1448 1447 1446 1447 1449 1453 1452 1455 1459 1464 1466 1467 1469 1471 1470 1469 1470 1470 1472 1471 1470 1468 1467 1465 1463
1435 1432 1429 1426 1423 1423 1424 1424 1424 1423 1420 1419 1421 1421 1423 1424 1427 1430 1433 1432 1433 1432 1437 1440 1441 1445 1448 1452 1454 1456 1456 1458 1458 1460 1461 1462 1462 1463 1463 1461 1460 1458 1457
1428 1424 1421 1419 1416 1413 1413 1412 1413 1412 1408 1408 1408 1407 1408 1410 1415 1417 1418 1419 1416 1418 1423 1425 1428 1430 1434 1437 1439 1442 1446 1448 1449 1450 1452 1453 1453 1455 1454 1453 1453 1452 1451
Wind_Speed
10 9 5 4 3 3 3 4 5 6 6 6 6 5 4 4 4 4 5 6 7 7 8 8 9 8 8 9 9 9 9 10 10 11 11 11 10 9 9 11 12 12 13
11 9 6 5 5 5 5 5 5 6 5 4 4 4 3 2 1 3 5 6 7 8 8 7 7 6 5 6 7 7 7 8 9 10 11 11 10 10 9 11 10 11 12
11 10 8 7 6 7 6 6 6 5 5 5 5 4 3 1 1 3 5 7 6 7 6 5 5 4 4 4 6 6 8 8 9 11 12 12 11 11 10 10 10 10 12
13 12 10 8 8 8 8 7 6 6 5 5 5 4 3 2 3 5 5 6 5 7 5 5 4 3 3 4 6 7 8 9 11 12 12 12 12 13 13 12 12 11 11
15 13 11 10 10 10 9 9 8 6 5 5 4 4 4 3 4 8 4 4 5 6 4 2 2 3 4 5 6 7 9 10 11 12 12 13 13 14 13 12 11 10 10
16 15 14 13 13 12 11 11 9 8 7 6 6 6 6 6 6 8 3 5 5 5 2 2 1 3 3 5 5 7 8 10 11 12 13 13 14 14 13 12 11 11 10
17 17 16 16 16 14 12 12 11 9 8 7 7 8 7 7 8 10 4 5 6 5 1 1 0 2 3 4 5 6 8 10 11 12 12 13 14 14 14 13 12 11 11
19 18 18 18 18 16 15 14 13 11 10 10 9 9 6 9 11 10 7 6 7 6 4 3 1 1 2 3 4 5 7 9 10 12 13 13 14 14 14 13 12 11 11
22 21 19 19 20 19 17 16 15 13 12 13 13 8 6 6 11 12 11 8 9 8 6 5 4 3 3 2 4 6 7 8 10 12 13 13 13 13 13 14 14 12 11
25 23 21 21 22 21 20 18 16 16 16 15 16 17 12 8 8 8 13 11 11 9 8 7 6 5 5 3 4 5 6 8 10 12 13 13 13 13 13 14 14 14 13
25 25 25 24 24 23 21 20 20 19 18 18 18 16 18 16 14 11 7 13 13 11 9 9 9 8 7 6 5 6 7 8 10 11 13 13 13 13 13 14 14 14 15
26 27 27 27 26 26 25 23 22 22 21 20 21 21 20 20 18 18 16 11 12 12 12 13 11 9 10 8 6 7 8 8 10 11 12 13 13 13 13 14 14 14 15
30 27 28 29 29 28 27 26 26 25 24 24 23 24 23 22 20 18 20 16 15 15 14 14 13 12 11 10 9 8 9 9 9 11 12 13 13 13 13 14 14 15 15
31 28 28 30 29 29 28 29 29 28 27 27 26 26 25 24 24 23 21 20 18 19 19 16 13 13 13 12 11 10 10 11 10 11 12 12 13 13 13 14 14 15 16
33 31 29 30 30 31 31 31 32 32 30 29 29 28 29 27 27 27 26 24 23 19 17 19 19 15 15 13 11 11 11 12 13 11 12 12 13 13 14 15 15 16 17
37 35 34 34 33 33 34 34 35 34 34 33 32 32 31 30 30 29 29 28 28 27 26 14 16 16 14 15 14 13 13 13 14 14 12 14 14 14 14 15 16 17 18
38 40 40 38 37 36 36 36 37 37 37 36 35 35 34 32 32 31 31 30 31 31 33 31 22 19 21 19 17 16 15 16 15 16 14 15 16 16 15 16 18 18 18
35 37 41 43 42 40 39 39 40 40 40 40 38 38 37 35 34 33 33 34 35 34 35 34 29 28 26 23 21 19 19 18 17 17 17 16 17 16 16 16 18 19 18
31 33 36 41 44 44 44 43 43 43 43 43 42 41 40 38 36 37 37 37 37 36 37 37 34 29 29 29 26 24 22 20 19 17 17 17 19 17 17 18 19 19 18
31 32 34 36 39 43 45 46 46 47 47 47 46 46 44 43 40 40 40 40 39 39 39 39 37 34 33 30 29 28 25 22 20 18 19 18 19 18 18 20 19 19 20
31 33 35 36 37 40 42 44 46 48 50 51 51 51 50 48 45 43 43 42 43 43 43 42 41 39 38 36 35 28 25 23 22 21 19 20 18 18 19 20 18 19 21
25 29 34 37 41 42 41 41 43 45 48 52 54 54 53 52 50 48 47 45 45 46 46 46 45 45 42 39 34 29 28 27 24 22 18 17 18 19 19 18 18 20 22
23 25 29 31 36 43 44 44 43 45 47 49 51 53 55 55 54 52 51 49 49 48 47 46 47 47 44 38 34 32 33 30 26 24 22 22 20 19 19 19 19 20 22
21 23 27 29 33 34 37 42 46 48 50 51 52 51 51 53 54 53 52 54 54 53 52 49 51 48 45 39 35 34 31 26 28 28 25 26 21 18 18 19 19 21 18
22 23 24 27 30 32 31 32 36 44 51 53 53 54 54 53 53 51 51 55 57 57 54 51 52 48 45 40 39 37 37 34 33 31 28 26 25 19 17 19 20 17 16
27 25 25 26 26 29 29 30 31 36 45 51 53 55 57 56 55 55 55 55 59 59 56 55 54 53 49 46 45 43 40 36 35 32 31 28 25 19 13 16 16 15 17
Wind_Direction
213 212 199 193 178 174 162 157 147 141 140 132 119 111 100 86 87 80 77 79 83 84 81 74 68 63 58 53 45 37 28 21 16 12 7 3 353 348 346 335 335 329 329
212 210 206 208 204 196 188 179 165 156 143 136 135 129 116 104 108 85 85 93 86 87 82 72 68 61 56 52 40 30 19 12 5 1 359 352 344 334 328 330 331 327 324
214 208 211 211 209 204 196 190 187 174 161 163 161 163 152 141 193 143 101 90 92 102 85 84 76 62 55 43 31 19 15 7 1 356 353 346 339 333 327 324 318 317 316
215 212 216 217 218 211 206 203 204 195 184 193 187 188 205 211 187 164 115 101 120 122 83 95 50 50 51 37 27 16 13 7 2 357 349 341 338 336 334 332 328 326 322
218 219 221 225 226 218 213 212 209 208 206 215 216 212 201 192 165 156 129 141 143 134 87 71 45 66 41 35 27 21 14 8 1 354 347 341 340 339 338 337 335 330 329
223 223 224 226 230 221 216 217 215 216 216 217 217 205 180 166 178 179 166 187 167 158 90 40 43 70 50 40 25 20 14 7 358 351 346 343 342 339 339 337 336 337 337
229 227 226 228 231 226 220 221 221 220 218 216 208 189 178 185 190 189 203 174 183 184 216 282 232 53 36 38 21 14 11 3 354 350 347 344 344 342 341 339 339 342 341
234 233 230 231 233 230 224 225 225 219 219 211 203 192 193 195 192 197 202 188 199 204 232 268 304 5 8 11 9 6 7 356 349 350 350 347 345 342 340 341 341 342 340
237 236 234 233 234 233 229 230 230 228 224 218 208 199 191 203 197 207 202 201 208 220 241 263 288 290 294 324 348 352 352 346 349 350 348 346 343 340 341 341 341 340 341
240 239 236 234 235 235 230 230 233 233 231 224 219 216 220 207 203 200 214 209 216 218 235 249 260 258 263 286 313 322 333 342 344 346 345 344 340 341 342 340 339 338 338
243 242 239 236 236 237 237 233 234 234 234 230 229 230 228 226 220 219 216 217 222 224 232 239 244 247 252 260 276 300 320 327 337 341 342 341 339 339 337 334 334 332 335
247 244 241 239 238 238 239 238 239 238 236 236 235 233 233 233 235 233 232 231 229 228 232 236 245 247 246 253 269 289 302 316 325 333 337 338 337 336 332 327 327 328 331
250 247 245 241 239 240 240 241 241 243 242 240 238 240 238 236 238 242 241 240 241 239 241 239 239 243 245 254 257 273 289 303 316 325 328 330 332 331 326 323 323 323 327
257 256 253 250 246 243 243 243 244 244 245 245 241 241 241 238 239 238 239 237 242 241 244 243 237 239 242 250 255 266 284 299 305 312 314 319 322 321 319 315 319 320 322
259 257 254 253 250 246 243 244 245 245 247 250 249 247 245 241 239 239 240 238 238 247 249 242 240 238 237 246 260 274 284 289 294 304 307 309 311 312 311 314 315 316 318
262 261 258 255 253 250 245 244 246 246 246 248 251 250 248 245 242 239 240 241 240 243 248 258 243 247 243 249 258 270 274 281 289 295 300 301 302 303 307 307 310 311 315
262 260 261 258 256 253 251 247 246 247 246 247 248 251 253 251 248 245 243 244 244 244 247 247 251 249 248 254 262 268 275 278 284 291 293 293 297 302 301 299 305 308 312
270 263 260 260 260 257 254 251 249 248 246 247 249 250 252 252 250 248 246 245 245 245 247 252 246 250 254 261 264 268 271 274 278 282 288 292 293 298 294 296 300 304 306
278 272 264 260 260 260 258 256 254 253 252 251 252 252 254 253 252 251 249 248 247 246 246 249 251 246 250 255 259 262 265 269 272 276 282 290 295 299 290 295 300 302 301
284 279 273 268 265 263 262 260 258 257 256 254 253 253 253 254 253 253 251 250 250 248 247 247 250 248 247 249 253 256 260 265 268 272 278 285 287 285 287 295 296 297 298
280 281 278 273 270 267 265 263 262 260 258 258 257 255 255 255 255 255 255 253 251 249 246 245 247 248 247 247 250 259 262 259 264 265 271 276 274 280 288 290 289 290 299
282 282 275 273 270 269 269 267 267 265 264 261 259 259 258 257 257 256 256 256 255 253 251 247 249 249 252 253 253 253 255 254 257 264 266 269 270 278 282 282 282 287 296
286 275 279 280 274 269 269 270 270 269 268 266 264 263 262 260 259 258 258 257 257 255 252 253 253 253 255 257 253 251 252 255 259 263 267 270 271 273 275 276 278 284 291
323 300 281 273 276 278 273 268 268 269 269 269 268 266 265 265 264 262 261 260 257 257 253 250 252 253 254 254 251 253 257 257 252 256 262 266 267 267 267 269 273 280 282
317 319 310 294 280 275 274 274 271 268 267 267 268 268 266 265 263 264 261 259 260 259 258 258 257 255 255 251 247 246 243 242 249 254 257 261 267 265 258 262 269 269 279
308 310 312 312 304 290 281 273 269 268 268 268 268 267 267 266 265 264 262 261 258 257 258 256 253 254 252 247 245 245 246 244 247 251 255 253 260 257 261 259 253 263 287